Weather History for KFOK - October, 2012

Change the Weather History Date:

Tuesday, October 9, 2012

  Actual Average Record
Temperature  
Mean Temperature 56 °F -  
Max Temperature 59 °F 63 °F 84 °F (2011)
Min Temperature 53 °F 43 °F 24 °F (2001)
Degree Days  
Heating Degree Days 9    
Growing Degree Days 6 (Base 50)    
Moisture  
Dew Point 52 °F    
Average Humidity 84    
Maximum Humidity 94    
Minimum Humidity 69    
Precipitation  
Precipitation 0.01 in - - ()
Sea Level Pressure  
Sea Level Pressure 30.17 in    
Wind  
Wind Speed 10 mph (NE)    
Max Wind Speed 16 mph    
Max Gust Speed 25 mph    
Visibility 9 miles    
Events Rain    
Averages and records for this station are not official NWS values.
T = Trace of Precipitation, MM = Missing Value Source: NWS Daily Summary

Daily Weather History Graph

Daily Weather History Graph

Search for Another Location

Airport or City:

Trip Planner

Search our weather history database for the weather conditions in past years. The results will help you decide how hot, cold, wet, or windy it might be!

Date:

Astronomy

Oct. 09, 2012 Rise Set
Actual Time 6:55 AM EDT 6:18 PM EDT
Civil Twilight 6:28 AM EDT 6:46 PM EDT
Nautical Twilight 5:56 AM EDT 7:17 PM EDT
Astronomical Twilight 5:24 AM EDT 7:49 PM EDT
Moon 12:27 AM EDT (10/9) 2:46 PM EDT (10/9)
Length of Visible Light 12h 17m
Length of Day
11h 22m
Last Quarter, 37% of the Moon is Illuminated
Oct 9
Last Quarter
Oct 15
New
Oct 21
First Quarter
Oct 29
Full
Nov 6
Last Quarter

Hourly Weather History & Observations

Time (EDT) Temp. Dew Point Humidity Pressure Visibility Wind Dir Wind Speed Gust Speed Precip Events Conditions
12:53 AM 53.1 °F 44.1 °F 71% 30.25 in 10.0 mi NE 5.8 mph - N/A   Partly Cloudy
1:53 AM 54.0 °F 45.0 °F 72% 30.24 in 10.0 mi NE 8.1 mph - N/A   Overcast
2:11 AM 55.4 °F 46.4 °F 72% 30.23 in 10.0 mi NE 9.2 mph - N/A   Overcast
2:22 AM 55.4 °F 46.4 °F 72% 30.22 in 10.0 mi NE 10.4 mph - N/A   Overcast
2:53 AM 55.9 °F 46.0 °F 69% 30.21 in 10.0 mi NE 10.4 mph - N/A   Overcast
4:22 AM 55.4 °F 46.4 °F 72% 30.21 in 10.0 mi ENE 8.1 mph - N/A   Overcast
4:53 AM 55.9 °F 46.9 °F 72% 30.21 in 10.0 mi NE 6.9 mph - N/A   Overcast
5:53 AM 55.9 °F 46.9 °F 72% 30.20 in 10.0 mi NE 8.1 mph - N/A   Overcast
6:53 AM 55.9 °F 50.0 °F 80% 30.20 in 10.0 mi NE 11.5 mph - N/A   Overcast
7:34 AM 55.4 °F 51.8 °F 88% 30.20 in 8.0 mi NNE 10.4 mph - N/A   Overcast
7:53 AM 55.0 °F 53.1 °F 93% 30.19 in 10.0 mi NNE 11.5 mph - 0.00 in   Overcast
8:53 AM 55.0 °F 53.1 °F 93% 30.20 in 4.0 mi NE 10.4 mph - 0.01 in Rain Light Rain
9:20 AM 55.4 °F 53.6 °F 94% 30.20 in 10.0 mi NE 12.7 mph - 0.00 in   Overcast
9:35 AM 55.4 °F 53.6 °F 94% 30.20 in 7.0 mi NE 13.8 mph 21.9 mph 0.00 in   Overcast
9:53 AM 55.9 °F 53.1 °F 90% 30.21 in 8.0 mi NE 12.7 mph - 0.00 in Rain Light Rain
10:53 AM 57.0 °F 53.1 °F 87% 30.19 in 7.0 mi NE 16.1 mph 20.7 mph 0.00 in Rain Light Rain
11:23 AM 57.2 °F 53.6 °F 88% 30.18 in 7.0 mi NE 16.1 mph 23.0 mph 0.00 in   Overcast
11:35 AM 57.2 °F 53.6 °F 88% 30.18 in 5.0 mi NE 16.1 mph 24.2 mph 0.00 in Rain Light Rain
11:53 AM 57.0 °F 54.0 °F 89% 30.18 in 6.0 mi NE 16.1 mph 25.3 mph 0.00 in   Overcast
12:35 PM 57.2 °F 53.6 °F 88% 30.17 in 10.0 mi NE 12.7 mph 19.6 mph N/A   Overcast
12:53 PM 57.9 °F 54.0 °F 87% 30.17 in 10.0 mi NE 11.5 mph - N/A   Overcast
1:53 PM 59.0 °F 54.0 °F 83% 30.15 in 9.0 mi NE 12.7 mph 18.4 mph N/A   Overcast
2:53 PM 57.9 °F 54.0 °F 87% 30.14 in 4.0 mi NE 13.8 mph 19.6 mph 0.00 in Rain Light Rain
3:46 PM 57.2 °F 53.6 °F 88% 30.14 in 6.0 mi NE 11.5 mph 18.4 mph 0.00 in   Overcast
3:53 PM 57.9 °F 54.0 °F 87% 30.14 in 7.0 mi NE 11.5 mph - 0.00 in   Overcast
4:10 PM 57.2 °F 53.6 °F 88% 30.14 in 10.0 mi NE 13.8 mph 19.6 mph N/A   Overcast
4:53 PM 57.9 °F 53.1 °F 84% 30.13 in 10.0 mi ENE 11.5 mph 19.6 mph N/A   Overcast
5:53 PM 57.9 °F 52.0 °F 81% 30.13 in 10.0 mi ENE 9.2 mph - N/A   Overcast
6:53 PM 57.9 °F 52.0 °F 81% 30.12 in 10.0 mi ENE 9.2 mph - N/A   Overcast
7:53 PM 57.9 °F 53.1 °F 84% 30.13 in 10.0 mi NE 6.9 mph - N/A   Overcast
8:53 PM 57.0 °F 53.1 °F 87% 30.13 in 10.0 mi NE 13.8 mph 18.4 mph N/A   Overcast
9:06 PM 57.2 °F 53.6 °F 88% 30.13 in 10.0 mi NE 9.2 mph 18.4 mph N/A   Overcast
9:53 PM 57.0 °F 53.1 °F 87% 30.12 in 10.0 mi NE 10.4 mph - N/A   Overcast
10:39 PM 57.2 °F 53.6 °F 88% 30.12 in 10.0 mi ENE 8.1 mph - N/A   Overcast
10:53 PM 57.0 °F 52.0 °F 83% 30.12 in 10.0 mi ENE 10.4 mph - N/A   Overcast
11:50 PM 57.2 °F 51.8 °F 82% 30.10 in 10.0 mi NE 5.8 mph - 0.00 in   Overcast
11:53 PM 57.0 °F 52.0 °F 83% 30.10 in 10.0 mi NE 10.4 mph - 0.00 in   Overcast